Location: Unspecified
(0.0000°N, 0.0000°E)
Time: 18:32:45
(UTC+00:00)

Vanguard 1 Rocket - Pass Details

Date: 25 April 2026
Orbit: 655 x 4212 km, 34.3° (Epoch: 17 May)

Event Time Altitude Azimuth Distance (km) Brightness Sun altitude
Rises 23:40:10 0° 311° (NW) 8,418 12.5 -76.1°
Reaches altitude 10° 23:48:51 10° 324° (NW) 7,375 12.1 -76.7°
Maximum altitude 00:06:43 23° 10° (N) 5,519 11.3 -76.7°
Drops below altitude 10° 00:19:46 10° 58° (ENE) 5,437 11.4 -75.8°
Sets 00:24:35 0° 72° (ENE) 5,899 11.7 -75.3°
